Location: Unspecified
(0.0000°N, 0.0000°E)
Time: 06:55:30
(UTC+00:00)

Quakesat - Visible Passes

Search period start: 29 July 2021 00:00
Search period end: 08 August 2021 00:00
Orbit: 811 x 823 km, 98.7° (Epoch: 28 July)

Date Brightness Start Highest point End Pass type
(mag) Time Alt. Az. Time Alt. Az. Time Alt. Az.
29 Jul ? 05:15:37 10° NE 05:19:54 25° ESE 05:24:12 10° SSE visible
30 Jul ? 04:55:51 10° ENE 04:58:24 14° ESE 05:00:57 10° SE visible
30 Jul ? 19:14:56 10° SW 19:17:15 13° WSW 19:19:34 10° WNW visible
31 Jul ? 18:51:35 10° SSW 18:55:46 24° WSW 18:59:56 10° NW visible
01 Aug ? 18:29:15 10° S 18:34:15 43° WSW 18:39:14 10° NNW visible
02 Aug ? 05:28:42 10° NE 05:33:34 36° ESE 05:38:25 10° SSE visible
03 Aug ? 05:08:14 10° ENE 05:12:04 20° ESE 05:15:53 10° SSE visible
04 Aug ? 04:49:37 10° E 04:50:34 10° ESE 04:51:32 10° ESE visible
04 Aug ? 19:06:12 10° SW 19:09:24 16° WSW 19:12:37 10° WNW visible
05 Aug ? 18:43:21 10° SSW 18:47:54 29° WSW 18:52:27 10° NW visible
06 Aug ? 05:42:02 10° NNE 05:47:14 52° ESE 05:52:25 10° S visible
07 Aug ? 05:21:09 10° NE 05:25:43 29° ESE 05:30:16 10° SSE visible
